Regional Weather Roundup
Issued by NWS

Home | Current Version | Previous Version | Graphics & Text | Print | Product List | Glossary On
Versions: 1 2 3 4 5 6 7 8 9 10 11 12 13 14 15 16 17 18 19 20 21 22 23 24 25 26 27 28 29 30 31 32 33 34 35 36 37 38 39 40 41 42 43 44 45 46 47 48 49 50
000
ASUS43 KLMK 030102
RWRKY
KENTUCKY REGIONAL WEATHER ROUNDUP
NATIONAL WEATHER SERVICE LOUISVILLE KY
900 PM EDT SUN AUG 02 2015

NOTE "FAIR" INDICATES FEW OR NO CLOUDS BELOW 12,000 FEET
WITH NO SIGNIFICANT WEATHER AND/OR OBSTRUCTIONS TO VISIBILITY.

KYZ001>023-026-027-061>063-070>075-030200-
WESTERN AND SOUTH CENTRAL KENTUCKY

CITY           SKY/WX    TMP DP  RH WIND       PRES   REMARKS
PADUCAH        CLEAR     82  72  71 S5        29.87F
HENDERSON      CLEAR     79  70  73 S6        29.86F
OWENSBORO      CLEAR     80  68  67 S6        29.89F
HOPKINSVILLE   NOT AVBL
BOWLING GREEN  CLEAR     80  62  54 SE5       29.92S
GLASGOW        NOT AVBL
$$

KYZ024-025-028>034-038-045-046-053-030200-
NORTH CENTRAL KENTUCKY

CITY           SKY/WX    TMP DP  RH WIND       PRES   REMARKS
LOUISVILLE/SDF PTCLDY    84  61  45 S12       29.88F
LOUISVILLE/LOU CLEAR     83  62  49 S7        29.89F
FORT KNOX      NOT AVBL
$$

KYZ035>037-039>044-047>052-055>060-089>105-030200-
NORTHEAST KENTUCKY

CITY           SKY/WX    TMP DP  RH WIND       PRES   REMARKS
LEXINGTON      CLEAR     78  61  55 S3        29.93F
COVINGTON      PTCLDY    77  62  59 S7        29.89F
FRANKFORT      CLEAR     79  61  53 S6        29.91S
$$

KYZ054-064>069-076>088-106>120-030200-
SOUTHEAST KENTUCKY

CITY           SKY/WX    TMP DP  RH WIND       PRES   REMARKS
JACKSON        CLEAR     76  60  57 CALM      29.95F
LONDON         CLEAR     78  61  55 CALM      29.95S
SOMERSET       NOT AVBL
MIDDLESBORO    CLEAR     73  63  69 W5        29.95S
MONTICELLO     CLEAR     72  68  87 CALM      29.96S
$$




USA.gov is the U.S. government's official web portal to all federal, state and local government web resources and services.